Regional Weather Roundup
Issued by NWS Goodland, KS

Home | Current Version | Previous Version | Text Only | Print | Product List | Glossary On
Versions: 1 2 3 4 5 6 7 8 9 10 11 12 13 14 15 16 17 18 19 20 21 22 23 24 25 26 27 28 29 30 31 32 33 34 35 36 37 38 39 40 41 42 43 44 45 46 47 48 49 50
000
ASUS43 KGLD 110808
RWRGLD

GOODLAND FORECAST AREA HOURLY WEATHER ROUNDUP
NATIONAL WEATHER SERVICE GOODLAND KS
100 AM MST MON DEC 11 2017

...OFFICIAL OBSERVATIONS...

CITY           SKY/WX    TMP DP  RH WIND       PRES   REMARKS
GOODLAND KS    CLOUDY    30   2  30 W7        30.24S
HILL CITY KS   CLEAR     36   9  32 W7        30.18F
IMPERIAL NEB   CLEAR     40   7  25 W17       30.21S
MCCOOK NEB     CLOUDY    35  11  36 W16       30.18S
AKRON CO       CLOUDY    31  -2  24 W14       30.29S
BURLINGTON CO  CLOUDY    28   2  32 W10       30.27S WCI  19
LIMON CO       CLOUDY    20  -5  33 NW7       30.32S
$$

...UNOFFICIAL OBSERVATIONS...

CITY           SKY/WX    TMP DP  RH WIND       PRES   REMARKS
COLBY KS       CLOUDY    32  10  40 W12       30.22F
LENORA KS        N/A     42  32  68 W10         N/A
NORTON KS      CLEAR     41   1  19 W15       30.15
SHARON SPRINGS   N/A     33   6  31 W7          N/A
TRENTON NEB      N/A     38  32  79 NW5         N/A
KIT CARSON CO    N/A     30   2  30 MISG        N/A
YUMA CO        FAIR      27   3  36 W10       30.27S WCI  17
$$




USA.gov is the U.S. government's official web portal to all federal, state and local government web resources and services.